Retour au catalogue

KUIPER-00226

ActifCommunicationsLEO
NORAD 67785·PAYLOAD·🇺🇸 United States

Lancé Feb 12, 2026 depuis Guiana Space Centre

Loading…

Prochains Passages (prochaines 24 heures)

TLE

FraisSource: CelesTrak SupGP

Époque: Sep 15, 2026, 04:16 UTC

1 67785C 26030X   26258.17821759 -.00002049  00000+0 -26461-3 0  2583
2 67785  51.8994  67.6748 0002475 314.7321  83.8173 14.80489682    19

Suivez KUIPER-00226 en temps réel avec AllMySat

Download on the App Store